Ozark, AL

4:46 AM CDT on September 21, 2017 (GMT -0500)
Cairns Army Air Field

Weather History for KOZR - November, 2013

Change the Weather History Date:

Thursday, November 14, 2013

  Actual Average Record
Temperature  
Mean Temperature 47 °F -  
Max Temperature 65 °F 67 °F 83 °F (2008)
Min Temperature 29 °F 45 °F 29 °F (2013)
Degree Days  
Heating Degree Days 18    
Moisture  
Dew Point 34 °F    
Average Humidity 60    
Maximum Humidity 76    
Minimum Humidity 43    
Precipitation  
Precipitation 0.00 in - - ()
Sea Level Pressure  
Sea Level Pressure 30.35 in    
Wind  
Wind Speed 7 mph (ENE)    
Max Wind Speed 9 mph    
Max Gust Speed -    
Visibility 10 miles    
Events      
Averages and records for this station are not official NWS values.
T = Trace of Precipitation, MM = Missing Value Source: NWS Daily Summary

Daily Weather History Graph

Daily Weather History Graph

Search for Another Location

Airport or City:

Trip Planner

Search our weather history database for the weather conditions in past years. The results will help you decide how hot, cold, wet, or windy it might be!

Date:

Astronomy

Nov. 14, 2013 Rise Set
Actual Time 6:09 AM CST 4:44 PM CST
Civil Twilight 5:43 AM CST 5:10 PM CST
Nautical Twilight 5:14 AM CST 5:39 PM CST
Astronomical Twilight 4:45 AM CST 6:08 PM CST
Moon 2:56 PM CST (11/14) 3:14 AM CST (11/14)
Length of Visible Light 11h 26m
Length of Day
10h 35m
Waxing Gibbous, 92% of the Moon is Illuminated
Nov 14
Waxing Gibbous
Nov 17
Full
Nov 25
Last Quarter
Dec 2
New
Dec 9
First Quarter

Hourly Weather History & Observations

Time (CST) Temp. Windchill Dew Point Humidity Pressure Visibility Wind Dir Wind Speed Gust Speed Precip Events Conditions
12:58 AM 32.4 °F 25.3 °F 22.3 °F 66% 30.43 in 10.0 mi NE 8.1 mph - N/A   Clear
1:58 AM 31.5 °F 24.9 °F 21.9 °F 68% 30.43 in 10.0 mi NNE 6.9 mph - N/A   Clear
2:58 AM 31.1 °F 23.7 °F 21.6 °F 68% 30.43 in 10.0 mi NNE 8.1 mph - N/A   Clear
3:58 AM 31.1 °F 23.1 °F 21.6 °F 68% 30.41 in 10.0 mi NE 9.2 mph - N/A   Clear
4:58 AM 29.7 °F 22.0 °F 21.9 °F 73% 30.43 in 10.0 mi NE 8.1 mph - N/A   Clear
5:58 AM 29.3 °F 21.5 °F 21.9 °F 74% 30.43 in 10.0 mi NE 8.1 mph - N/A   Clear
6:58 AM 32.0 °F 24.2 °F 22.6 °F 68% 30.44 in 10.0 mi NE 9.2 mph - N/A   Clear
7:58 AM 38.5 °F 32.7 °F 23.7 °F 55% 30.45 in 10.0 mi ENE 8.1 mph - N/A   Clear
8:55 AM 46.4 °F 42.4 °F 26.6 °F 46% 30.43 in 10.0 mi ENE 8.1 mph - N/A   Clear
9:55 AM 53.6 °F - 32.0 °F 44% 30.42 in 10.0 mi NE 8.1 mph - N/A   Clear
10:55 AM 57.2 °F - 35.6 °F 44% 30.40 in 10.0 mi ENE 5.8 mph - N/A   Clear
10:58 AM 57.7 °F - 35.6 °F 44% 30.40 in 10.0 mi ENE 6.9 mph - N/A   Clear
11:58 AM 61.3 °F - 39.0 °F 44% 30.36 in 10.0 mi SE 4.6 mph - N/A   Clear
12:58 PM 63.7 °F - 40.6 °F 43% 30.33 in 10.0 mi East 5.8 mph - N/A   Clear
1:58 PM 65.8 °F - 42.4 °F 43% 30.30 in 10.0 mi East 8.1 mph - N/A   Clear
2:58 PM 65.5 °F - 42.4 °F 43% 30.28 in 10.0 mi ESE 3.5 mph - N/A   Clear
3:58 PM 64.0 °F - 42.1 °F 45% 30.28 in 10.0 mi East 4.6 mph - N/A   Clear
4:58 PM 58.1 °F - 41.7 °F 54% 30.27 in 10.0 mi East 4.6 mph - N/A   Clear
5:58 PM 54.5 °F - 41.9 °F 62% 30.28 in 10.0 mi ENE 5.8 mph - N/A   Clear
6:58 PM 52.7 °F - 41.4 °F 65% 30.28 in 10.0 mi ENE 4.6 mph - N/A   Clear
7:58 PM 50.2 °F - 41.9 °F 73% 30.28 in 10.0 mi NE 5.8 mph - N/A   Clear
8:58 PM 50.7 °F - 42.6 °F 74% 30.26 in 10.0 mi NE 6.9 mph - N/A   Clear
9:58 PM 50.2 °F - 43.0 °F 76% 30.25 in 10.0 mi NE 5.8 mph - N/A   Clear
10:58 PM 50.9 °F - 43.3 °F 75% 30.25 in 10.0 mi NE 5.8 mph - N/A   Overcast
11:58 PM 51.1 °F - 43.7 °F 76% 30.24 in 10.0 mi ENE 4.6 mph - N/A   Mostly Cloudy